User: anonymous   Login
Location: Niverville
(49.6028°N, 97.0419°W)
Time: 19:53:12
(UTC-05:00)
Language:

Cosmos 2237 Rocket - Orbit

View from above orbital plane
View from above orbital plane
View from above satellite
View from above satellite

Ground track
Ground track

The orbit data is extracted from the following two-line orbital elements,

1 22566U 93016B   16176.91168994 -.00000240 +00000-0 -99204-4 0  9994
2 22566 071.0079 096.8577 0012002 309.0732 050.9322 14.14925752200720
Epoch (UTC): 24 June 2016 21:52:50
Eccentricity: 0.0012002
inclination: 71.0079°
perigee height: 834 km
apogee height: 851 km
right ascension of ascending node: 96.8577°
argument of perigee: 309.0732°
revolutions per day: 14.14925752
mean anomaly at epoch: 50.9322°
orbit number at epoch: 20072

The dashed part of the orbit path shows where the satellite is in the earth's shadow,  

DLR